Wind_Speed
20 21 22 22 22 22 23 23 26 27 28 27 27 27 29 31 32 34 36 37 39 40 41 43 43 41 43 43 43 44 44 43 48 47 45 43 41 39 37 37 38 36 40
23 24 25 27 28 28 27 28 27 28 28 29 28 28 27 28 30 32 34 36 38 39 40 40 42 41 46 44 42 47 45 43 47 47 44 43 41 40 37 36 38 42 27
22 24 26 27 29 31 33 33 33 34 32 29 29 29 28 27 27 29 32 33 34 36 37 39 39 39 47 46 46 48 44 42 46 48 47 43 43 43 42 39 37 20 26
26 27 28 29 30 33 34 36 36 35 37 36 32 31 31 30 30 31 31 34 37 38 38 37 35 35 38 44 45 51 37 44 45 46 46 45 43 42 39 33 19 25 31
29 30 31 32 32 34 35 35 36 38 38 37 38 36 33 32 31 32 34 35 35 36 36 36 36 37 35 35 37 39 37 43 42 48 42 42 41 42 38 31 28 27 25
34 34 34 35 36 36 36 38 38 38 39 39 38 37 38 36 33 32 33 36 37 38 38 37 36 32 35 33 33 34 39 39 39 39 39 39 34 38 35 32 27 28 26
35 37 38 38 38 38 39 39 38 40 41 41 40 38 38 37 38 35 34 36 37 37 38 40 40 40 39 39 40 38 39 38 36 41 41 42 39 32 28 28 25 26 28
36 38 40 41 43 43 41 41 41 40 41 43 44 41 39 37 34 35 35 35 36 37 37 39 39 41 40 39 40 40 37 34 34 35 34 33 28 24 24 26 26 28 29
38 39 39 40 43 44 44 44 44 44 43 42 43 43 40 38 33 31 31 35 36 36 34 35 37 36 32 32 36 39 39 39 34 33 32 29 26 27 25 26 29 28 29
38 39 40 40 41 43 44 45 43 42 44 43 43 40 39 39 33 30 28 30 34 34 33 30 28 28 31 32 32 31 33 33 32 36 31 29 26 24 23 24 23 27 30
36 39 41 41 41 41 42 40 41 40 38 39 41 41 39 34 33 30 29 30 30 31 32 31 26 26 27 27 28 29 29 26 27 26 25 24 25 24 23 22 23 24 28
38 40 41 41 41 41 41 39 37 35 34 36 37 41 40 36 32 30 28 27 28 29 28 28 26 26 27 27 28 28 29 29 29 27 25 25 23 22 21 22 23 25 25
37 39 40 39 38 36 36 35 32 28 29 30 31 37 40 36 34 29 27 26 26 27 24 23 24 24 24 25 25 25 26 26 26 26 26 23 21 20 21 21 21 21 21
34 36 37 37 35 32 29 27 20 29 32 33 33 36 39 37 32 28 26 23 24 25 24 23 22 23 23 23 22 24 24 23 23 25 24 23 22 21 20 19 19 19 17
28 31 34 34 34 33 29 28 23 19 21 25 26 28 26 28 26 22 20 19 19 19 18 15 13 14 12 12 13 14 15 15 18 20 21 21 21 20 19 18 17 17 17
27 28 30 32 32 32 32 29 22 20 17 20 19 21 19 14 12 12 12 13 12 10 8 6 6 6 5 4 3 4 5 6 7 9 13 16 17 18 18 16 15 15 15
24 25 26 27 28 29 29 29 31 25 19 19 20 19 18 20 14 12 12 12 9 6 1 8 7 6 7 6 5 4 5 5 4 5 6 8 9 10 9 9 10 12 11
21 22 23 24 25 25 25 24 24 27 29 26 23 26 23 22 20 15 13 6 11 16 18 18 16 14 13 11 8 7 6 5 4 5 5 4 3 2 4 6 8 8 9
20 21 21 21 21 21 22 22 23 24 26 28 25 23 25 22 20 19 21 24 23 22 21 19 17 15 13 12 11 9 8 7 7 7 7 6 5 4 4 4 5 5 5
18 20 20 21 21 21 21 22 23 24 26 27 29 31 29 25 25 25 25 23 22 21 19 18 17 15 14 11 9 9 7 5 4 4 4 3 4 4 3 3 5 6 7
19 19 20 19 20 20 21 22 23 23 24 24 25 24 25 26 26 25 25 24 22 21 19 18 17 16 14 12 10 10 9 8 6 5 5 4 4 5 6 7 8 9 11
18 19 19 20 20 20 20 20 20 21 21 23 23 23 23 23 23 22 22 21 20 20 19 18 18 17 16 15 14 12 11 10 10 10 9 9 9 9 9 10 11 13 13
19 19 18 17 18 18 18 19 20 21 21 21 22 23 23 23 22 22 21 20 19 19 18 18 18 18 18 17 17 16 15 15 14 14 14 13 12 12 13 13 13 14 14
18 18 19 18 18 18 19 19 19 20 20 21 21 22 22 22 22 21 21 20 19 19 19 18 18 18 18 17 17 16 16 16 17 17 17 17 17 16 16 16 16 17 17
16 16 17 18 18 18 18 19 19 20 20 21 22 22 22 22 22 22 21 21 20 20 19 19 19 19 18 18 18 17 16 16 16 17 17 17 17 17 17 17 18 18 18
17 17 17 17 18 18 19 19 20 21 21 22 22 23 23 24 24 24 23 23 22 21 21 20 20 20 20 20 19 19 18 17 17 18 19 18 17 17 18 18 18 18 19
Wind_Direction
358 353 348 345 343 340 336 331 323 315 311 307 301 292 282 277 277 279 279 279 278 277 275 272 270 267 267 266 266 265 265 265 262 271 273 278 278 279 277 276 276 268 267
355 351 346 341 339 338 335 332 329 324 320 309 303 297 290 285 279 277 279 279 278 278 278 275 276 277 272 269 269 264 265 267 265 269 272 273 276 275 276 273 271 277 277
348 345 339 336 335 334 333 331 329 325 322 317 306 296 289 286 284 281 279 280 278 277 277 276 276 276 270 271 268 264 266 269 267 268 271 269 268 268 274 266 261 260 262
340 337 335 333 331 328 326 325 325 323 321 318 315 305 292 283 278 279 278 277 277 277 276 276 277 275 272 271 268 266 269 267 268 266 267 266 265 266 266 257 254 262 251
336 335 332 331 328 324 320 319 318 319 318 318 313 310 303 290 282 277 274 273 271 273 276 278 278 276 275 273 270 270 275 267 268 263 264 256 259 263 262 255 262 256 252
335 334 332 329 326 324 320 317 316 315 314 313 313 309 306 302 290 279 277 275 271 267 267 269 270 272 273 272 267 274 271 267 276 270 266 274 270 272 270 258 250 245 243
335 335 334 331 328 326 323 320 317 313 311 310 309 308 304 301 300 290 277 275 275 271 265 265 264 265 268 270 269 269 268 265 265 271 270 273 270 271 263 251 246 252 258
336 337 336 333 330 329 326 323 319 315 311 308 308 306 305 302 299 297 292 282 276 273 269 265 267 267 265 265 267 269 270 270 267 263 269 275 262 254 258 258 260 255 244
340 340 338 336 332 330 327 324 322 316 312 310 307 307 307 304 306 303 298 290 285 282 280 275 270 268 270 269 268 270 271 267 264 271 269 261 266 262 251 247 241 232 223
344 343 342 340 335 331 327 324 322 317 312 310 308 309 309 308 308 302 296 293 291 290 287 285 281 278 267 266 267 269 270 265 269 271 255 263 263 248 241 234 232 230 224
348 347 346 343 339 336 329 327 323 319 313 312 312 311 309 308 305 299 293 289 291 292 289 288 283 274 271 268 266 263 264 261 258 253 255 248 249 244 238 235 230 230 228
355 351 348 346 343 340 335 332 327 325 323 321 314 310 310 308 303 296 289 286 286 285 289 289 284 274 269 268 266 265 261 258 255 248 240 234 236 235 233 232 228 226 222
359 356 353 350 346 343 339 339 342 344 341 333 326 321 316 314 303 297 291 284 281 281 282 284 283 280 275 268 266 266 260 254 247 238 233 232 236 233 225 219 215 212 212
2 1 0 357 352 351 348 352 3 351 337 336 335 332 327 324 316 307 300 289 283 281 281 281 280 277 273 267 262 261 256 248 241 237 235 233 223 214 210 209 205 203 203
4 4 7 5 3 358 355 355 344 330 348 353 351 354 354 347 328 316 312 305 294 288 286 287 282 263 261 257 249 243 240 237 235 234 232 222 212 206 200 198 200 202 204
6 7 7 7 8 6 0 354 355 348 329 329 335 0 357 3 359 334 325 308 308 306 282 255 245 260 247 233 232 232 221 220 226 228 217 209 203 200 198 198 205 213 216
5 7 8 8 9 8 8 5 356 358 3 5 9 356 9 7 358 355 4 350 338 311 109 91 97 90 88 92 100 93 84 88 111 148 173 182 200 205 211 218 211 195 184
4 5 7 7 8 9 9 10 9 10 7 8 23 26 26 25 20 20 29 353 62 67 70 71 75 78 77 76 74 74 79 87 101 116 123 126 144 167 174 171 177 171 168
2 4 5 5 6 6 7 9 10 14 14 13 12 24 25 26 31 35 41 49 52 53 51 53 57 61 66 68 70 74 80 90 106 124 133 150 161 168 160 143 140 140 165
1 1 1 1 1 3 4 6 7 12 13 13 14 17 14 12 20 26 31 35 38 38 35 33 35 36 38 41 45 49 55 67 84 97 117 150 164 179 193 210 207 212 224
351 350 351 352 353 356 357 359 0 2 5 5 8 13 10 13 20 21 22 23 23 22 22 18 14 13 13 14 11 359 355 351 345 332 317 304 276 254 248 249 255 248 243
344 346 347 348 349 351 355 356 359 2 3 0 1 3 4 5 8 10 11 11 10 6 4 2 359 358 356 354 352 350 344 335 329 324 317 309 300 293 284 275 270 267 265
339 340 342 345 349 350 351 353 355 357 358 357 356 357 359 1 2 2 2 1 358 355 352 348 345 343 341 339 337 336 333 331 328 322 316 310 306 301 294 287 280 275 270
338 339 341 343 346 347 348 350 352 352 352 353 353 353 354 355 354 353 352 351 349 347 345 343 341 339 337 335 332 330 327 323 319 314 309 306 304 300 296 292 288 283 280
335 336 337 338 341 343 344 345 346 347 348 348 348 347 347 347 346 345 344 343 342 340 339 338 336 333 331 330 328 325 323 320 315 310 306 304 303 300 296 292 289 286 284
329 330 333 334 336 337 339 341 342 343 342 342 341 341 339 339 338 336 335 335 334 333 332 330 329 327 325 323 321 320 318 315 310 306 306 309 304 299 297 294 290 287 285
Height
1492 1489 1488 1486 1483 1479 1476 1472 1468 1465 1461 1457 1454 1452 1450 1449 1448 1447 1446 1445 1443 1442 1441 1440 1439 1440 1439 1439 1439 1439 1439 1439 1433 1433 1435 1436 1437 1437 1438 1438 1438 1438 1437
1489 1486 1484 1481 1478 1474 1470 1466 1463 1459 1456 1452 1449 1446 1443 1442 1440 1439 1437 1436 1434 1432 1431 1431 1429 1430 1429 1429 1428 1427 1427 1428 1426 1422 1424 1424 1425 1426 1427 1427 1428 1429 1427
1488 1485 1482 1478 1473 1469 1464 1460 1456 1452 1450 1447 1443 1440 1437 1435 1433 1431 1429 1427 1425 1423 1421 1421 1420 1420 1418 1419 1418 1417 1417 1416 1416 1413 1412 1413 1414 1413 1415 1415 1419 1418 1422
1485 1482 1479 1474 1468 1464 1460 1455 1451 1447 1442 1438 1436 1433 1429 1426 1425 1423 1421 1419 1416 1414 1412 1411 1411 1410 1409 1409 1408 1407 1405 1407 1406 1405 1403 1403 1404 1405 1406 1407 1405 1411 1412
1480 1476 1473 1467 1462 1459 1455 1451 1446 1441 1436 1431 1426 1424 1422 1418 1416 1413 1412 1408 1407 1404 1403 1402 1401 1400 1400 1399 1399 1399 1399 1397 1397 1393 1394 1391 1393 1395 1396 1397 1400 1404 1402
1474 1470 1465 1460 1455 1451 1448 1443 1438 1433 1429 1424 1420 1416 1412 1408 1406 1404 1401 1397 1397 1395 1392 1393 1393 1391 1390 1390 1390 1390 1390 1387 1388 1385 1386 1386 1387 1389 1389 1389 1392 1395 1394
1468 1462 1457 1452 1447 1443 1440 1436 1430 1425 1420 1416 1412 1408 1403 1400 1397 1395 1392 1387 1385 1384 1383 1382 1381 1381 1381 1380 1380 1379 1379 1379 1379 1379 1377 1377 1378 1382 1381 1382 1385 1386 1387
1462 1457 1450 1445 1440 1435 1433 1427 1422 1417 1412 1406 1402 1399 1393 1391 1389 1386 1382 1378 1375 1374 1372 1371 1369 1368 1370 1370 1370 1368 1367 1368 1369 1368 1368 1370 1370 1372 1374 1377 1378 1380 1380
1456 1451 1447 1441 1434 1428 1423 1418 1413 1407 1403 1398 1394 1389 1385 1381 1381 1377 1373 1369 1365 1362 1362 1361 1359 1357 1359 1360 1359 1358 1358 1358 1359 1360 1360 1361 1362 1364 1366 1368 1368 1371 1372
1453 1448 1442 1434 1429 1423 1417 1410 1406 1401 1394 1390 1383 1382 1378 1373 1372 1370 1367 1362 1357 1355 1353 1352 1351 1349 1350 1350 1350 1351 1349 1352 1352 1353 1353 1353 1354 1356 1357 1360 1361 1362 1365
1450 1441 1433 1428 1422 1416 1410 1406 1399 1394 1389 1382 1378 1375 1370 1367 1363 1361 1359 1354 1350 1346 1344 1343 1343 1343 1342 1342 1342 1343 1343 1346 1344 1345 1345 1346 1347 1349 1350 1353 1355 1357 1360
1443 1436 1430 1425 1418 1413 1406 1400 1397 1391 1381 1378 1373 1367 1362 1358 1356 1354 1350 1346 1344 1339 1336 1337 1336 1335 1334 1335 1335 1336 1336 1338 1337 1338 1339 1340 1341 1343 1345 1346 1348 1351 1354
1441 1436 1430 1424 1418 1412 1406 1400 1394 1388 1383 1377 1371 1361 1353 1351 1348 1344 1341 1339 1336 1333 1330 1329 1330 1328 1326 1327 1329 1329 1329 1330 1331 1332 1333 1334 1336 1338 1339 1340 1343 1346 1350
1442 1437 1430 1423 1418 1413 1408 1401 1397 1391 1387 1376 1369 1361 1353 1345 1341 1337 1333 1330 1328 1326 1324 1322 1321 1321 1321 1321 1322 1323 1323 1323 1325 1327 1329 1331 1331 1332 1335 1337 1340 1343 1347
1444 1437 1430 1425 1417 1410 1409 1401 1397 1394 1390 1381 1373 1364 1354 1344 1338 1333 1329 1325 1324 1321 1320 1317 1316 1317 1317 1317 1318 1318 1318 1319 1321 1323 1325 1326 1328 1330 1332 1334 1337 1340 1344
1442 1436 1431 1424 1418 1411 1405 1402 1400 1393 1388 1381 1373 1364 1356 1348 1338 1333 1328 1324 1323 1320 1318 1316 1316 1318 1317 1317 1318 1319 1318 1318 1320 1322 1324 1326 1327 1329 1331 1332 1335 1337 1341
1442 1437 1432 1426 1420 1413 1406 1402 1396 1392 1387 1380 1371 1364 1356 1351 1342 1336 1331 1327 1324 1323 1319 1318 1317 1319 1319 1319 1320 1320 1320 1321 1321 1323 1326 1327 1331 1332 1331 1333 1335 1336 1337
1443 1438 1432 1427 1422 1417 1412 1405 1401 1392 1385 1380 1374 1366 1359 1353 1347 1341 1335 1330 1326 1326 1326 1324 1322 1322 1323 1323 1323 1323 1323 1324 1324 1325 1326 1328 1333 1333 1334 1334 1335 1335 1337
1442 1437 1433 1427 1423 1418 1414 1408 1404 1396 1390 1384 1377 1370 1363 1359 1353 1347 1341 1336 1335 1334 1334 1332 1330 1329 1328 1326 1327 1327 1326 1327 1327 1327 1327 1331 1334 1335 1335 1334 1334 1335 1338
1442 1437 1433 1428 1423 1419 1414 1409 1404 1396 1392 1387 1381 1373 1367 1362 1355 1351 1348 1345 1343 1341 1340 1340 1337 1335 1332 1331 1330 1329 1329 1329 1329 1330 1330 1331 1332 1332 1332 1333 1334 1335 1338
1441 1437 1432 1428 1423 1419 1414 1409 1404 1398 1393 1391 1386 1379 1374 1368 1363 1359 1355 1351 1349 1347 1345 1343 1342 1339 1337 1334 1333 1333 1332 1333 1332 1331 1331 1331 1331 1330 1331 1332 1334 1334 1335
1439 1434 1430 1426 1423 1419 1414 1409 1403 1399 1394 1391 1387 1382 1377 1372 1368 1363 1359 1356 1354 1351 1349 1346 1344 1342 1339 1337 1335 1334 1333 1332 1332 1331 1330 1329 1329 1328 1328 1329 1330 1331 1332
1438 1434 1429 1425 1421 1418 1414 1409 1404 1399 1395 1391 1387 1383 1378 1373 1369 1366 1362 1359 1356 1353 1350 1347 1345 1342 1340 1338 1336 1334 1332 1331 1330 1329 1328 1327 1326 1326 1326 1326 1327 1328 1329
1434 1431 1428 1424 1420 1416 1412 1409 1404 1400 1395 1391 1387 1383 1379 1374 1370 1367 1363 1360 1357 1354 1351 1347 1344 1342 1339 1337 1335 1333 1331 1329 1328 1326 1325 1324 1323 1323 1322 1323 1324 1325 1324
1432 1428 1425 1422 1418 1415 1411 1408 1404 1399 1395 1391 1387 1383 1379 1375 1371 1367 1364 1360 1356 1353 1350 1346 1343 1340 1337 1335 1333 1331 1329 1327 1326 1324 1322 1321 1320 1320 1319 1319 1319 1318 1318
1430 1426 1423 1420 1416 1413 1409 1406 1402 1398 1394 1390 1386 1382 1377 1373 1369 1365 1361 1358 1354 1351 1347 1344 1341 1338 1335 1332 1330 1328 1326 1324 1322 1320 1318 1317 1316 1316 1315 1314 1313 1312 1313